Probability
0 0 0 0 0 0 0 0 0 0 0 0 1 1 0 0 0 1 3 8 14 16 13 11 12 13 12 11 10 8 7 7 5 4 4 5 4 3 2 1 1 0 0 0 0 0 0 0 0
0 0 0 0 0 0 0 0 0 0 0 1 2 3 2 2 2 3 5 10 16 16 13 11 11 12 12 13 12 9 6 5 3 3 3 4 3 3 3 2 2 1 0 0 0 0 0 0 0
0 0 0 0 0 0 0 0 0 1 1 2 5 7 7 6 7 6 8 14 19 18 13 12 13 12 12 13 14 10 5 2 2 2 3 3 3 3 3 2 2 1 0 0 0 0 0 0 0
0 0 0 0 0 0 0 0 1 3 4 6 10 13 12 10 9 8 11 17 23 21 17 16 16 14 12 13 13 11 5 2 2 3 3 2 2 2 1 1 1 0 0 0 0 0 0 0 0
0 0 0 0 0 0 0 1 2 4 7 12 17 19 16 12 10 12 15 20 25 27 24 22 20 17 15 14 13 11 7 4 4 3 2 1 1 1 0 0 0 1 1 1 1 1 0 0 0
0 0 0 0 0 0 1 1 3 6 10 17 25 24 18 14 15 18 19 21 25 28 29 27 23 20 19 17 16 13 10 8 6 4 2 2 1 0 0 1 1 2 2 2 2 1 1 1 1
0 0 0 0 0 1 1 2 4 8 13 21 28 27 21 20 22 23 21 20 21 25 28 26 23 21 23 22 20 16 11 8 7 6 5 5 3 2 2 3 3 3 2 2 2 2 1 1 2
0 0 0 0 0 0 1 4 8 13 18 23 26 25 24 24 26 25 23 20 19 21 25 26 24 24 25 25 23 18 12 9 8 9 8 6 5 5 5 5 4 2 1 2 3 4 3 2 2
0 0 0 0 0 0 2 6 10 17 25 28 26 26 28 30 28 26 24 21 19 22 25 26 27 28 27 26 24 21 17 13 10 9 8 5 4 5 5 4 3 2 2 3 5 8 6 3 2
0 0 0 0 0 2 4 6 9 17 25 28 29 31 33 32 29 25 21 19 20 21 22 23 26 27 26 25 26 25 22 17 12 8 6 3 2 3 4 3 2 2 3 4 6 9 9 7 5
0 0 0 1 1 2 4 6 9 15 19 22 27 32 31 28 24 20 16 15 16 16 16 17 19 21 22 23 24 24 22 17 13 10 5 2 0 1 2 2 2 3 4 5 5 6 9 9 8
1 1 1 1 0 2 4 8 13 15 15 18 23 27 25 20 16 14 11 10 10 9 10 12 14 16 19 19 19 20 20 17 13 9 5 1 0 0 1 2 3 4 6 6 4 4 5 7 7
1 2 2 0 0 3 8 14 16 15 15 17 20 21 18 13 10 10 9 8 7 6 7 8 11 13 15 16 16 16 16 14 9 5 2 0 0 0 0 1 2 3 4 4 3 3 3 3 4
1 1 1 0 0 3 10 14 14 14 14 15 17 17 13 9 8 9 10 9 8 6 5 6 7 9 9 10 10 10 10 9 6 2 0 0 0 0 0 1 1 1 1 1 1 1 2 2 2
1 1 0 0 0 1 5 8 10 12 13 13 14 14 12 10 10 10 11 10 8 6 5 4 4 4 5 5 5 5 5 5 5 3 1 1 0 0 0 0 0 0 0 0 0 0 1 1 1
0 0 0 0 0 0 2 4 7 9 11 12 13 13 12 10 9 9 9 9 8 5 4 3 2 1 2 2 3 3 3 3 4 3 2 2 1 0 0 0 0 0 0 0 0 0 0 0 0
0 0 0 0 0 0 2 4 6 6 8 9 10 10 8 6 5 5 6 8 8 6 4 3 1 1 1 1 2 3 2 1 1 1 1 2 1 0 0 0 0 0 0 0 0 0 0 0 0
0 0 0 0 0 1 3 5 5 5 5 6 7 6 5 4 4 4 5 7 8 7 5 4 3 2 1 1 2 3 2 0 0 0 0 1 1 1 0 0 0 0 0 0 0 0 0 0 0
0 0 0 1 1 2 4 6 6 5 4 4 4 4 3 4 4 4 5 6 6 6 5 4 3 3 2 2 2 2 1 0 0 0 0 0 1 1 0 0 0 0 0 0 0 0 1 1 0
0 0 0 1 2 3 4 5 5 4 2 2 3 4 4 4 4 4 4 4 4 3 4 4 3 3 2 1 2 2 1 0 0 0 0 0 0 0 0 0 0 0 0 0 0 0 1 2 1
0 0 0 1 1 2 3 3 3 2 1 2 4 4 3 3 3 3 3 2 2 2 2 3 3 1 1 1 3 3 1 0 0 0 0 0 0 0 0 1 1 0 0 0 0 0 1 2 2
0 0 0 0 0 1 1 1 1 1 2 4 4 3 1 1 2 2 1 1 1 2 2 3 3 1 0 1 3 3 1 0 0 0 0 0 0 0 0 1 2 1 0 0 0 0 1 1 1
0 0 0 0 0 0 0 0 0 0 2 3 3 2 1 1 1 1 0 0 1 2 3 3 3 2 1 1 2 1 0 0 0 0 0 0 0 0 0 1 1 1 0 0 0 0 0 0 0
0 0 0 0 0 0 0 0 0 0 1 2 2 3 2 1 0 0 0 0 1 2 2 2 2 2 2 1 1 0 0 0 0 0 0 0 0 0 0 0 0 0 0 0 0 0 0 0 0
0 0 0 0 0 0 0 0 0 0 0 1 3 4 2 0 0 0 0 0 0 1 1 1 1 1 1 1 0 0 0 0 0 0 0 0 0 0 0 0 0 0 0 0 0 0 0 0 0
0 0 0 0 0 0 0 0 0 0 0 1 4 4 2 0 0 0 0 0 0 0 0 0 0 0 0 0 0 0 0 0 0 0 0 0 0 0 0 0 0 0 0 0 0 0 0 0 0
0 0 0 0 0 0 0 0 0 0 0 2 4 4 2 1 0 0 0 0 0 0 0 0 0 0 0 0 0 0 0 0 0 0 0 0 0 0 0 0 0 0 0 0 0 0 0 0 0
0 0 0 0 0 0 0 0 0 0 0 1 3 3 2 1 0 0 0 0 0 0 0 0 0 0 0 0 0 0 0 0 0 0 0 0 0 0 0 0 0 0 0 0 0 0 0 0 0
0 0 0 0 0 0 0 0 0 0 0 0 1 2 1 0 0 0 0 0 0 0 0 0 0 0 0 0 0 0 0 0 0 0 0 0 0 0 0 0 0 0 0 0 0 0 0 0 0
0 0 0 0 0 0 0 0 0 0 0 1 1 1 0 0 0 0 0 0 0 0 0 0 0 0 0 0 0 0 0 0 0 0 0 0 0 0 0 0 0 0 0 0 0 0 0 0 0
Wind_Speed
3 1 2 4 6 5 2 3 2 2 2 2 4 6 6 4 3 3 2 9 13 13 10 13 15 15 16 16 17 17 17 17 17 17 16 15 15 14 13 12 11 11 11 11 11 10 11 11 11
1 1 4 5 5 1 4 3 1 1 1 2 5 5 6 6 5 5 4 9 13 12 9 11 15 15 16 16 16 16 17 17 16 16 15 15 14 13 12 12 11 10 10 10 10 10 10 10 10
1 2 5 5 4 4 2 1 2 2 2 3 4 6 6 4 4 4 6 12 12 10 8 11 16 15 16 16 15 15 16 15 15 15 14 14 13 12 11 11 11 10 9 9 9 10 9 9 9
3 5 6 5 1 4 3 3 1 1 3 5 5 6 5 6 3 6 12 13 12 10 7 10 15 15 15 15 14 14 14 14 14 13 13 12 12 11 10 10 9 9 8 8 8 8 8 8 8
4 5 5 2 2 3 3 4 2 1 2 4 6 6 5 6 9 13 12 12 11 9 6 8 13 14 14 14 13 13 13 12 12 11 11 10 9 9 8 9 8 8 7 7 7 7 7 7 7
5 5 5 1 3 3 3 2 2 3 4 4 6 7 5 4 10 12 12 10 9 9 6 6 11 13 12 12 12 11 11 10 10 10 9 8 7 7 7 7 7 6 6 6 6 6 6 6 6
5 5 4 3 1 2 2 2 3 2 4 3 4 7 5 5 9 11 11 10 8 8 7 5 5 7 10 10 10 10 9 8 8 8 7 7 7 6 6 5 5 5 5 5 5 5 5 5 4
5 5 3 1 1 1 2 3 3 4 4 3 3 7 7 7 10 10 10 10 9 7 6 5 5 4 4 5 8 8 8 7 7 7 7 6 6 5 4 4 4 4 4 4 4 4 4 4 4
4 6 2 3 4 1 1 3 3 4 6 5 5 4 9 13 11 10 9 8 7 7 5 4 5 5 4 4 5 6 6 5 5 4 4 3 1 1 1 2 3 4 4 4 4 4 4 3 3
5 4 4 4 3 2 2 3 2 5 7 6 8 10 14 11 9 9 9 8 7 6 5 4 4 5 4 4 4 3 3 3 3 2 2 1 1 0 0 1 2 3 4 4 4 4 3 2 1
3 4 3 1 2 3 3 3 3 6 5 6 12 15 12 10 8 8 7 6 6 5 4 4 4 4 4 3 3 2 2 2 2 2 2 2 1 1 1 1 1 1 2 1 2 1 1 1 1
3 2 1 0 2 3 3 3 5 5 4 7 11 13 12 10 8 6 6 5 5 5 5 5 4 4 4 4 3 3 2 2 2 2 2 2 1 1 1 1 1 1 1 1 1 1 1 1 2
2 1 2 3 6 7 9 8 7 7 9 11 12 11 10 9 7 6 6 5 6 6 5 5 4 4 4 4 3 3 2 2 2 2 2 2 1 1 1 1 1 1 1 1 1 1 2 2 2
2 2 3 4 5 4 9 6 6 7 9 11 11 9 8 8 7 6 6 5 5 5 4 4 5 4 4 4 3 2 2 2 2 2 2 2 2 1 1 1 1 1 1 1 1 1 1 1 1
3 4 5 3 3 3 7 7 4 8 10 10 9 8 8 6 6 6 5 5 5 4 4 4 4 4 4 4 3 2 2 2 2 2 2 2 2 1 1 1 2 2 1 1 1 1 1 1 1
4 5 3 1 2 2 6 5 5 7 10 10 8 8 7 5 5 5 5 5 4 4 5 5 4 4 3 3 3 3 3 3 2 2 2 3 2 2 1 1 1 2 1 1 1 1 1 1 1
5 3 1 1 1 3 5 6 6 6 8 9 8 7 7 6 5 4 5 5 4 4 5 5 5 4 4 4 4 4 3 3 3 3 3 3 3 2 1 1 2 2 1 1 1 1 1 1 1
2 2 1 1 1 4 5 5 8 7 7 7 7 7 6 6 4 4 5 5 5 4 5 5 5 5 4 3 3 3 4 3 3 3 3 3 3 3 2 2 2 2 1 2 2 1 1 0 0
5 4 1 2 2 4 5 7 7 7 7 8 8 7 7 6 5 5 5 5 5 5 6 5 5 5 3 2 2 2 2 2 3 3 4 4 4 4 3 2 2 2 2 2 2 1 1 1 0
4 4 1 1 2 4 5 4 4 6 7 8 9 8 8 7 5 5 5 5 5 5 5 5 5 5 4 2 2 2 2 2 2 3 4 5 5 4 3 3 3 3 2 3 2 1 1 1 0
2 5 4 4 4 5 6 2 2 3 3 5 6 6 6 7 7 5 4 4 5 5 5 4 5 5 5 4 3 3 2 2 3 4 4 4 5 5 4 3 3 3 3 2 2 2 1 1 1
2 3 6 6 5 1 3 2 4 4 4 7 8 7 7 6 6 5 4 4 5 4 4 5 5 6 5 4 4 4 3 2 2 2 2 4 5 5 5 4 4 3 3 3 3 2 1 1 1
3 3 5 5 5 3 2 3 4 2 6 9 9 9 8 7 7 6 5 5 4 4 4 5 5 6 5 5 5 4 3 2 1 2 3 4 5 5 5 5 4 3 3 3 3 3 2 1 1
5 7 7 6 5 2 1 3 5 5 7 6 8 9 9 8 7 7 6 5 5 5 5 5 6 6 5 5 5 4 4 3 3 3 4 3 3 4 6 5 4 4 3 3 3 3 3 2 1
5 7 4 4 4 3 1 2 7 5 5 6 9 10 10 9 8 8 7 5 5 4 4 5 6 5 5 5 5 4 4 3 3 2 2 3 3 3 5 5 4 4 3 3 3 3 3 3 2
3 7 8 5 4 3 1 4 5 3 1 4 7 9 10 9 8 7 7 6 5 4 4 4 5 4 4 4 4 3 3 2 2 2 2 2 2 2 3 4 4 4 4 4 4 3 3 3 3
5 2 5 7 3 1 3 4 4 2 3 5 8 9 9 8 8 7 7 6 5 4 4 4 4 4 3 3 3 4 4 3 3 3 3 2 2 2 4 4 5 5 5 4 4 3 3 3 3
5 7 5 6 5 2 3 3 4 4 5 6 8 9 9 8 8 7 6 6 4 4 4 4 3 3 3 3 3 3 3 3 3 3 4 4 3 3 4 5 5 5 5 5 4 3 4 4 4
3 4 5 4 5 6 3 6 4 7 7 8 8 9 10 10 9 7 6 5 5 4 4 3 3 3 4 3 3 3 3 3 4 4 4 3 3 4 4 5 5 5 5 5 4 4 5 5 5
3 4 5 5 3 3 4 6 3 2 5 7 8 8 9 9 8 7 7 6 5 4 3 3 3 3 3 3 3 3 3 4 4 4 4 4 3 4 4 4 5 5 5 4 4 5 5 5 5
Wind_Direction
314 336 91 65 55 48 286 268 267 331 28 51 95 108 112 99 120 134 84 124 123 129 133 134 132 127 122 118 115 114 113 113 114 115 117 119 121 122 124 124 123 121 121 121 120 120 119 120 121
319 62 61 62 84 55 286 270 284 339 128 101 73 76 79 65 60 83 94 117 122 126 128 134 132 127 124 121 119 118 118 118 118 119 121 123 124 124 126 126 124 122 122 122 122 123 124 125 127
301 60 83 77 111 175 240 251 119 66 28 66 72 55 64 54 63 83 112 120 118 119 124 138 133 129 126 124 123 122 122 123 123 124 126 128 128 127 128 128 126 125 125 126 126 126 128 132 133
82 53 57 77 184 219 230 251 219 70 32 52 88 71 58 23 34 104 117 119 116 118 126 137 132 130 129 128 127 127 127 128 128 129 130 131 131 130 129 129 129 129 129 129 130 129 131 136 139
61 79 69 49 272 264 254 258 252 99 81 76 91 87 54 20 84 106 113 115 116 114 117 132 131 132 133 133 132 131 131 131 132 132 133 132 132 132 133 134 134 135 136 137 137 136 138 143 147
60 71 91 194 279 286 287 308 74 87 100 87 90 92 67 69 99 106 109 109 114 118 113 120 132 134 135 136 135 135 134 135 136 138 138 136 135 135 138 140 142 143 142 141 142 143 148 152 156
103 99 137 175 261 319 329 19 61 96 90 68 92 100 106 108 109 112 110 109 113 114 111 103 114 127 134 136 136 136 136 137 137 138 141 144 147 150 153 154 152 151 155 156 156 160 163 166 173
119 102 111 174 177 273 329 32 47 61 89 56 74 127 144 141 125 115 110 107 105 101 98 96 96 99 108 121 134 137 138 140 141 145 149 153 158 164 170 165 172 176 181 182 180 182 183 185 193
87 78 144 203 184 207 24 62 40 53 84 62 51 93 125 130 127 117 112 109 109 106 101 101 106 103 103 110 119 121 127 128 130 134 143 142 119 130 166 190 203 207 208 208 206 209 206 207 217
85 119 217 218 190 145 68 77 100 97 81 86 88 99 121 127 130 125 126 125 120 114 104 98 105 108 106 115 106 99 103 99 92 83 89 83 79 60 144 289 249 237 231 229 228 228 219 210 205
130 175 223 243 163 122 96 67 47 111 101 142 139 136 134 126 121 120 118 114 111 105 93 81 83 91 96 94 100 92 88 91 86 78 79 84 74 42 21 0 317 307 277 271 275 276 240 200 205
146 233 188 148 86 87 86 84 64 56 107 120 127 131 130 127 125 123 115 102 90 84 72 72 78 82 81 87 91 90 89 87 83 69 65 77 76 56 18 9 337 344 337 302 298 280 261 248 241
171 256 79 90 79 86 83 73 85 79 96 105 111 112 114 115 107 92 88 83 80 72 59 54 66 74 74 76 75 76 74 80 80 67 58 72 78 41 3 7 358 347 339 323 293 280 271 269 268
160 103 73 72 80 71 95 82 85 103 113 113 114 112 113 115 113 104 95 86 77 68 59 54 62 68 76 78 77 72 69 72 70 54 41 52 57 44 18 346 341 339 328 312 278 268 269 263 258
98 73 48 51 88 115 96 65 86 132 123 117 116 112 112 108 107 103 101 90 83 67 53 49 66 63 81 89 90 89 78 72 63 41 33 40 45 38 27 6 348 332 329 330 319 317 312 286 273
62 61 60 335 102 123 104 120 139 141 133 130 128 122 113 97 89 82 82 81 83 79 64 48 57 62 66 75 81 78 72 71 59 39 30 25 26 28 31 9 336 330 336 341 319 326 312 296 288
44 86 101 353 52 117 121 149 160 155 146 144 140 134 126 113 93 79 76 76 72 71 73 62 55 52 57 69 76 69 63 57 47 37 32 17 14 16 25 360 341 339 334 339 318 336 276 257 281
138 123 107 211 240 112 121 143 154 161 155 153 144 139 135 126 114 94 82 77 76 64 65 64 57 48 49 62 70 66 58 47 43 35 25 20 15 18 20 19 0 6 9 357 343 323 326 269 315
142 133 150 250 169 119 135 147 166 165 162 163 159 154 150 137 117 92 79 73 73 66 62 55 53 44 47 51 62 63 48 30 34 36 30 24 20 22 28 16 16 20 14 353 349 337 340 350 30
136 126 143 25 95 115 117 125 159 173 183 176 169 167 159 143 126 103 83 63 63 63 61 62 56 51 48 51 59 76 71 49 47 33 30 21 16 18 24 22 17 15 11 11 12 11 332 320 15
164 169 179 152 81 74 101 69 184 192 180 166 166 161 155 153 145 131 107 84 73 65 59 65 57 55 50 53 67 67 52 31 25 18 15 7 10 17 21 19 22 16 14 357 348 358 355 299 299
232 204 159 140 118 135 143 176 240 206 201 190 177 166 162 156 146 138 120 98 80 71 67 65 62 58 51 52 63 69 70 49 13 2 360 359 14 18 17 18 20 12 8 1 349 354 345 330 288
181 101 108 109 115 92 48 133 269 189 217 210 188 174 165 160 151 142 129 108 86 72 68 67 68 60 53 56 61 68 67 49 19 17 17 10 9 16 16 16 16 12 7 1 359 356 356 343 305
124 78 60 51 70 76 233 152 254 216 215 199 180 171 162 156 147 136 123 108 91 76 67 66 68 57 49 55 60 68 72 63 43 25 19 7 1 5 11 9 9 7 4 356 349 351 354 346 328
93 93 52 14 21 250 269 175 245 244 225 196 176 168 159 154 149 143 135 120 102 85 72 68 69 57 47 53 56 61 68 67 55 31 19 11 5 359 356 2 2 1 356 355 359 2 357 351 344
154 136 153 179 203 258 325 231 255 297 240 152 148 148 147 147 145 145 141 130 118 103 85 76 74 66 52 56 55 51 56 59 49 39 36 19 356 343 348 359 3 2 2 5 9 9 357 355 349
129 134 153 127 132 123 275 275 297 73 98 122 132 139 145 145 142 140 136 127 125 116 99 91 85 71 53 56 58 48 42 46 45 37 37 23 4 358 4 5 9 7 7 6 9 6 358 355 351
118 140 102 113 139 210 279 262 238 208 188 162 155 155 147 144 141 140 136 131 128 120 107 97 91 86 75 69 63 58 42 41 41 39 29 21 11 12 10 8 10 11 9 8 11 0 354 2 352
85 86 98 104 142 155 218 264 230 204 191 177 171 161 155 153 150 146 137 130 125 115 109 104 92 73 63 60 59 53 41 38 41 36 22 18 17 15 15 8 10 11 9 8 11 7 3 6 1
129 143 142 143 183 162 168 260 323 200 169 159 158 152 148 143 138 133 129 125 123 119 112 102 91 78 62 56 56 50 42 38 37 29 17 17 18 15 15 12 11 8 7 8 12 10 10 9 4